GFSFLT2_500_rhum_219.txt.gz
RH
10 10 10 13 12 11 11 12 14 18 22 24 28 28 28 25 22 21 20 15 14 17 30 37 34 37 47 61 64 58 35 39
15 15 15 14 13 15 17 18 20 21 18 16 20 29 34 34 31 27 26 26 19 16 19 32 36 34 37 46 55 74 47 41
22 19 20 19 20 19 15 12 12 10 11 12 13 13 24 37 39 38 51 55 63 60 40 30 40 43 39 46 49 72 53 66
25 22 20 21 21 19 12 12 12 10 11 12 12 12 16 29 31 47 67 71 79 88 62 47 39 65 59 55 54 55 53 60
26 27 28 24 21 15 13 14 13 13 12 11 12 14 14 18 33 47 59 66 76 87 89 66 54 63 78 60 55 53 56 64
25 23 20 13 12 14 16 18 17 14 13 12 14 15 15 26 40 52 61 74 79 89 95 95 54 67 72 67 63 59 54 61
22 17 13 12 13 14 17 20 20 18 15 14 17 16 24 34 37 45 59 71 67 90 96 97 91 76 83 82 81 60 52 58
24 15 12 13 14 16 18 23 24 21 22 22 24 22 25 36 46 48 49 67 88 96 96 96 98 94 93 95 88 78 57 59
31 22 17 16 17 18 21 29 29 28 28 32 34 34 32 41 55 57 78 87 97 94 96 97 98 97 97 98 92 98 64 56
26 24 23 26 22 24 26 35 33 30 33 44 45 42 35 30 39 61 88 83 97 88 96 92 97 98 99 99 95 98 78 62
28 28 31 31 25 27 29 32 32 43 45 47 44 51 44 41 40 62 88 90 88 74 66 86 94 95 96 98 96 98 90 74
35 35 36 35 35 33 32 36 39 38 47 53 51 53 61 59 73 90 80 74 81 76 70 59 96 97 95 97 97 98 94 86
41 44 44 41 41 38 42 43 41 45 52 50 62 62 66 78 87 79 78 77 82 75 83 73 63 84 93 92 97 96 98 97
32 38 46 50 51 51 55 47 45 41 44 44 48 56 67 76 79 83 97 86 82 80 83 61 62 51 91 98 97 98 96 96
39 43 48 57 62 65 62 61 55 48 61 72 63 64 90 98 94 77 97 84 67 65 65 56 58 52 68 86 96 96 98 97
45 59 60 68 72 76 76 70 60 64 64 67 73 80 95 97 98 99 100 98 84 77 67 59 63 98 79 78 98 95 98 98
47 67 78 76 76 82 93 95 95 96 89 82 86 73 82 90 100 100 99 85 73 63 65 67 89 80 98 99 94 97 97 98
65 76 84 92 95 90 95 94 96 96 95 93 93 91 98 97 96 96 96 92 77 77 77 62 65 92 95 98 96 98 98 97
80 90 92 89 82 89 95 94 92 93 98 97 98 91 97 89 96 96 95 77 60 62 72 67 63 75 91 98 94 95 98 98
80 74 70 82 80 81 99 100 100 94 100 94 89 92 97 98 94 95 86 79 62 62 65 59 83 89 94 92 87 92 96 97

GFSFLT2_500_rhum_222.txt.gz
RH
10 10 10 11 13 14 12 11 12 15 17 16 14 16 18 23 28 27 29 28 27 26 24 20 20 24 30 35 36 36 39 44
12 12 14 18 17 14 13 16 19 18 17 16 15 13 13 12 15 23 27 30 32 36 52 41 37 34 36 41 39 36 42 43
15 21 24 20 18 16 15 17 14 13 13 11 10 10 11 11 10 19 26 26 48 62 70 80 81 92 69 54 50 41 44 47
33 30 26 22 20 18 19 20 13 14 13 12 11 12 12 11 12 18 19 36 44 56 66 77 91 92 94 71 70 60 51 52
31 30 28 23 20 19 22 23 16 14 14 15 15 14 13 13 14 16 17 27 34 60 72 79 88 96 96 91 87 76 64 56
27 27 28 29 27 26 22 12 12 15 18 19 18 17 16 13 14 17 25 29 42 58 67 76 95 94 95 96 95 80 74 63
33 33 32 28 18 17 14 15 15 17 19 21 20 20 19 15 16 27 33 30 45 58 77 81 95 96 96 93 92 81 87 72
38 40 38 34 29 21 17 16 16 17 17 18 19 23 24 25 30 36 36 48 65 78 85 94 97 100 95 96 93 87 91 85
38 34 29 27 27 28 30 28 20 19 20 22 23 26 37 43 44 49 56 58 65 79 75 92 96 97 97 96 96 95 89 98
28 23 25 28 32 32 29 27 26 26 24 27 28 32 41 46 63 54 53 59 82 64 76 96 96 90 99 96 98 96 89 92
24 27 24 22 23 26 30 36 37 34 30 35 43 49 56 71 62 47 56 77 78 88 96 95 74 92 77 61 98 97 97 90
27 28 31 35 38 37 36 36 38 39 40 42 59 59 68 80 59 57 51 56 74 87 97 91 83 87 70 51 98 98 97 97
35 40 44 44 46 50 52 55 53 47 48 50 59 75 73 62 69 65 64 64 76 85 94 100 79 85 70 59 78 96 96 96
46 51 54 57 58 56 53 52 59 61 56 57 55 59 76 78 81 67 66 66 78 90 96 88 84 85 67 58 93 92 61 81
31 36 46 53 56 66 67 65 70 70 69 75 79 71 82 90 91 84 76 80 75 76 96 92 82 83 73 64 50 48 58 72
28 28 34 40 59 75 87 91 96 97 93 84 81 88 88 87 85 83 89 92 94 99 94 94 87 88 73 65 50 53 70 98
20 19 16 18 30 52 80 82 88 96 98 97 96 93 96 85 82 95 92 95 72 98 97 92 80 91 72 63 54 59 89 77
15 16 30 54 72 84 81 73 76 79 92 92 97 96 93 97 98 99 98 98 81 96 100 94 82 85 86 70 64 59 64 75
16 20 31 69 83 78 75 64 53 47 64 76 78 66 72 72 96 91 97 99 92 97 93 97 93 95 92 72 69 66 56 86
27 65 86 83 72 59 54 50 55 67 57 55 67 98 100 96 98 98 100 100 97 97 98 95 97 95 93 82 69 59 56 68

GFSFLT2_500_rhum_228.txt.gz
RH
9 9 10 10 11 11 12 15 17 16 15 13 12 14 17 18 17 14 12 12 13 12 13 18 22 33 43 51 58 54 61 63
9 12 13 13 11 10 13 22 22 20 17 16 17 19 18 14 13 11 11 12 13 12 13 15 18 45 42 51 58 60 66 65
22 18 15 13 12 12 19 25 24 24 22 19 19 21 20 15 13 13 13 14 14 15 16 17 20 42 47 54 59 63 58 63
15 17 17 14 13 14 18 22 23 23 22 22 19 23 24 20 15 15 15 17 17 22 26 26 20 30 43 51 65 66 64 67
12 16 16 14 16 16 22 27 23 21 22 23 24 23 22 19 14 16 20 18 23 32 38 38 39 40 41 49 60 63 75 79
14 24 22 25 22 26 29 28 25 26 26 23 19 16 15 14 14 16 18 19 22 36 44 47 47 45 48 53 61 71 76 77
39 35 34 29 34 36 26 32 30 29 27 24 25 30 27 19 16 22 30 39 38 42 40 40 42 55 60 61 66 66 79 66
41 36 36 35 32 29 28 25 32 36 35 29 33 32 35 39 54 64 62 60 52 57 62 54 61 63 65 66 63 66 76 68
36 34 34 33 28 29 29 29 23 23 28 27 26 28 29 40 59 64 61 53 52 59 63 63 64 55 54 68 74 67 79 68
44 44 42 40 37 31 28 30 33 28 25 33 35 27 29 47 50 58 70 81 77 62 61 66 59 52 59 76 81 70 78 80
36 40 40 38 36 32 29 27 24 25 23 22 25 31 36 41 45 54 66 72 71 65 55 58 60 64 65 74 86 76 77 84
28 30 33 32 33 31 30 29 28 26 25 24 25 30 33 39 50 59 63 68 62 63 72 73 70 62 64 72 77 78 77 72
32 33 32 32 36 34 37 34 32 32 32 33 35 35 36 39 43 55 56 66 65 67 82 78 90 82 86 85 84 96 91 72
44 45 43 37 38 32 33 35 38 43 42 46 46 47 52 57 55 55 51 61 67 67 93 92 92 95 92 99 86 88 95 87
36 37 37 38 41 38 34 35 38 41 42 44 42 43 48 53 58 54 51 51 62 68 64 100 80 85 83 97 87 88 95 94
35 28 26 20 19 23 26 25 28 30 32 36 44 44 41 35 36 37 48 48 95 54 66 90 96 86 91 96 96 96 99 94
17 17 18 18 23 29 30 26 23 21 21 23 24 23 17 17 16 15 12 13 17 53 46 59 65 84 74 98 91 97 96 96
17 15 14 13 10 7 8 6 16 28 29 24 20 16 10 7 11 14 16 18 26 15 14 19 70 72 43 68 84 78 93 96
15 15 16 16 18 25 29 35 35 30 25 22 19 12 6 3 3 27 34 37 39 27 26 25 31 19 29 98 96 97 96 94
14 12 12 12 31 34 41 27 23 24 20 18 13 5 3 2 3 23 43 51 60 44 38 88 67 34 51 100 97 91 74 97

GFSFLT2_500_rhum_231.txt.gz
RH
10 8 8 8 8 8 8 9 10 12 20 20 19 17 16 19 22 19 15 12 11 10 12 13 14 16 18 20 23 32 36 56
17 11 8 7 8 10 9 9 9 13 20 22 22 18 16 18 21 22 17 14 14 14 14 15 16 21 26 24 23 29 30 55
13 17 16 10 9 11 11 10 11 16 24 22 22 22 17 16 18 17 13 12 13 14 18 20 24 36 36 37 39 35 39 47
21 13 16 14 12 11 11 11 13 15 20 22 19 19 20 20 19 19 19 19 14 16 17 20 23 33 37 40 42 46 43 49
16 17 23 33 18 14 14 13 18 24 26 26 22 24 22 20 17 15 16 15 13 16 18 19 24 35 41 38 37 50 50 50
12 18 22 21 35 46 51 28 27 27 26 23 24 24 23 26 24 29 32 32 28 24 27 34 45 52 57 54 49 59 52 51
25 28 26 36 51 44 41 33 37 33 29 28 27 28 28 31 38 37 41 43 46 54 55 55 64 69 62 60 60 62 45 43
30 34 33 35 36 35 37 38 32 32 29 26 34 39 45 41 48 56 58 56 56 67 72 69 66 62 62 75 74 65 51 48
44 46 45 42 36 34 34 33 34 32 30 32 38 46 66 77 62 62 60 54 47 64 78 82 82 83 81 74 77 61 52 56
42 40 42 44 42 38 33 32 30 30 33 32 28 28 35 30 32 35 43 59 63 61 73 92 95 94 94 85 76 72 59 50
31 31 29 28 30 32 32 30 27 25 24 24 26 28 30 31 34 36 32 30 42 46 48 59 84 82 74 84 70 78 64 55
34 35 36 37 37 39 39 39 37 35 31 30 29 28 27 27 26 24 32 39 41 44 52 54 51 67 74 69 72 77 78 69
35 35 35 37 33 30 31 32 30 27 23 22 23 21 21 22 22 29 31 28 30 42 50 51 57 62 70 72 81 79 80 70
37 36 33 32 30 29 27 29 29 28 27 25 26 26 33 37 41 41 39 33 33 31 45 52 44 58 69 70 72 83 95 78
46 38 34 33 33 32 32 31 32 34 35 36 38 37 37 36 38 42 45 46 45 46 44 47 96 60 53 68 66 81 81 96
47 34 31 29 27 28 24 18 15 15 17 20 24 30 36 38 38 34 31 28 24 24 23 24 26 85 43 56 88 90 100 96
30 30 24 19 16 18 17 14 14 14 16 18 23 28 34 29 23 23 20 27 24 22 19 17 17 17 39 31 92 35 48 97
17 14 13 13 13 15 9 9 8 8 9 18 28 34 32 21 15 16 14 10 9 10 10 10 10 11 13 68 72 27 30 96
25 22 22 24 22 20 16 11 9 9 12 14 18 25 23 19 14 10 7 6 4 3 5 10 11 11 11 29 17 86 30 54
37 30 28 22 16 11 12 16 21 28 29 27 24 22 19 12 8 4 3 3 3 29 43 25 35 52 60 90 69 43 84 84